Time,TemperatureF,DewpointF,PressureIn,WindDirection,WindDirectionDegrees,WindSpeedMPH,WindSpeedGustMPH,Humidity,HourlyPrecipIn,Conditions,Clouds,dailyrainin,SoftwareType,DateUTC
2013-05-10 00:03:00,66.0,65.0,30.12,ENE,71,0.0,0.0,95,0.00,,,0.00,,2013-05-10 04:03:00,
2013-05-10 00:12:00,66.0,65.0,30.12,ENE,71,0.0,0.0,95,0.00,,,0.00,,2013-05-10 04:12:00,
2013-05-10 00:23:00,66.0,65.0,30.12,ENE,71,0.0,0.0,95,0.00,,,0.00,,2013-05-10 04:23:00,
2013-05-10 00:33:00,66.0,65.0,30.12,ENE,71,0.0,0.0,95,0.00,,,0.00,,2013-05-10 04:33:00,
2013-05-10 00:43:00,65.0,64.0,30.12,ENE,71,0.0,0.0,95,0.00,,,0.00,,2013-05-10 04:43:00,
2013-05-10 00:53:00,65.0,64.0,30.12,ENE,71,0.0,0.0,95,0.00,,,0.00,,2013-05-10 04:53:00,
2013-05-10 01:02:00,65.0,64.0,30.13,ENE,71,0.0,0.0,95,0.00,,,0.00,,2013-05-10 05:02:00,
2013-05-10 01:12:00,65.0,64.0,30.12,ENE,71,0.0,0.0,96,0.00,,,0.00,,2013-05-10 05:12:00,
2013-05-10 01:22:00,65.0,64.0,30.12,ENE,71,0.0,0.0,96,0.00,,,0.00,,2013-05-10 05:22:00,
2013-05-10 01:32:00,65.0,64.0,30.11,ENE,71,0.0,0.0,96,0.00,,,0.00,,2013-05-10 05:32:00,
2013-05-10 01:42:00,65.0,64.0,30.11,ENE,71,0.0,0.0,96,0.00,,,0.00,,2013-05-10 05:42:00,
2013-05-10 01:52:00,65.0,64.0,30.11,ENE,71,0.0,0.0,96,0.00,,,0.00,,2013-05-10 05:52:00,
2013-05-10 02:02:00,64.0,63.0,30.10,ENE,71,0.0,0.0,96,0.00,,,0.00,,2013-05-10 06:02:00,
2013-05-10 02:12:00,64.0,63.0,30.09,ENE,71,0.0,0.0,96,0.00,,,0.00,,2013-05-10 06:12:00,
2013-05-10 02:21:00,64.0,63.0,30.09,ENE,71,0.0,0.0,96,0.00,,,0.00,,2013-05-10 06:21:00,
2013-05-10 02:32:00,63.0,62.0,30.09,ENE,71,0.0,0.0,96,0.00,,,0.00,,2013-05-10 06:32:00,
2013-05-10 02:42:00,63.0,62.0,30.09,ENE,71,0.0,0.0,96,0.00,,,0.00,,2013-05-10 06:42:00,
2013-05-10 02:52:00,63.0,62.0,30.09,ENE,71,0.0,0.0,96,0.00,,,0.00,,2013-05-10 06:52:00,
2013-05-10 03:02:00,64.0,63.0,30.08,ENE,71,0.0,0.0,97,0.00,,,0.00,,2013-05-10 07:02:00,
2013-05-10 03:12:00,64.0,63.0,30.08,ENE,71,0.0,0.0,97,0.00,,,0.00,,2013-05-10 07:12:00,
2013-05-10 03:22:00,64.0,63.0,30.08,ENE,71,0.0,0.0,97,0.00,,,0.00,,2013-05-10 07:22:00,
2013-05-10 03:31:00,63.0,62.0,30.08,ENE,71,0.0,0.0,97,0.00,,,0.00,,2013-05-10 07:31:00,
2013-05-10 03:42:00,63.0,62.0,30.08,ENE,71,0.0,0.0,97,0.00,,,0.00,,2013-05-10 07:42:00,
2013-05-10 03:52:00,63.0,62.0,30.08,ENE,71,0.0,0.0,97,0.00,,,0.00,,2013-05-10 07:52:00,
2013-05-10 04:02:00,63.0,62.0,30.08,ENE,71,0.0,0.0,97,0.00,,,0.00,,2013-05-10 08:02:00,
2013-05-10 04:12:00,64.0,63.0,30.07,ENE,71,0.0,0.0,97,0.00,,,0.00,,2013-05-10 08:12:00,
2013-05-10 04:22:00,64.0,63.0,30.07,ENE,71,0.0,0.0,97,0.00,,,0.00,,2013-05-10 08:22:00,
2013-05-10 04:32:00,64.0,63.0,30.07,ENE,71,0.0,0.0,98,0.00,,,0.00,,2013-05-10 08:32:00,
2013-05-10 04:42:00,64.0,63.0,30.07,ENE,71,0.0,0.0,97,0.00,,,0.00,,2013-05-10 08:42:00,
2013-05-10 04:52:00,64.0,63.0,30.07,ENE,71,0.0,0.0,97,0.00,,,0.00,,2013-05-10 08:52:00,
2013-05-10 05:01:00,64.0,63.0,30.07,ENE,71,0.0,0.0,98,0.00,,,0.00,,2013-05-10 09:01:00,
2013-05-10 05:11:00,64.0,63.0,30.06,ENE,71,0.0,0.0,97,0.00,,,0.00,,2013-05-10 09:11:00,
2013-05-10 05:21:00,64.0,63.0,30.06,ENE,71,0.0,0.0,97,0.00,,,0.00,,2013-05-10 09:21:00,
2013-05-10 05:32:00,65.0,64.0,30.06,ENE,71,0.0,0.0,98,0.00,,,0.00,,2013-05-10 09:32:00,
2013-05-10 05:43:00,65.0,64.0,30.06,ENE,71,0.0,0.0,98,0.00,,,0.00,,2013-05-10 09:43:00,
2013-05-10 05:52:00,65.0,64.0,30.06,ENE,71,0.0,0.0,98,0.00,,,0.00,,2013-05-10 09:52:00,
2013-05-10 06:03:00,64.0,63.0,30.06,ENE,71,0.0,0.0,97,0.00,,,0.00,,2013-05-10 10:03:00,
2013-05-10 06:12:00,64.0,63.0,30.06,ENE,71,0.0,0.0,97,0.00,,,0.00,,2013-05-10 10:12:00,
2013-05-10 06:23:00,64.0,63.0,30.06,ENE,71,0.0,0.0,98,0.00,,,0.00,,2013-05-10 10:23:00,
2013-05-10 06:32:00,64.0,63.0,30.07,ENE,71,0.0,0.0,98,0.00,,,0.00,,2013-05-10 10:32:00,
2013-05-10 06:42:00,64.0,63.0,30.07,ENE,71,0.0,0.0,98,0.00,,,0.00,,2013-05-10 10:42:00,
2013-05-10 06:53:00,64.0,63.0,30.07,ENE,71,0.0,0.0,98,0.00,,,0.00,,2013-05-10 10:53:00,
2013-05-10 07:02:00,65.0,64.0,30.06,ENE,71,0.0,0.0,98,0.00,,,0.00,,2013-05-10 11:02:00,
2013-05-10 07:12:00,65.0,64.0,30.07,ENE,71,0.0,0.0,98,0.00,,,0.00,,2013-05-10 11:12:00,
2013-05-10 07:22:00,65.0,64.0,30.07,ENE,71,0.0,0.0,98,0.00,,,0.00,,2013-05-10 11:22:00,
2013-05-10 07:32:00,67.0,66.0,30.07,ENE,71,0.0,0.0,98,0.00,,,0.00,,2013-05-10 11:32:00,
2013-05-10 07:42:00,69.0,68.0,30.07,ENE,71,0.0,0.0,98,0.00,,,0.00,,2013-05-10 11:42:00,
2013-05-10 07:52:00,69.0,68.0,30.07,ENE,71,0.0,0.0,98,0.00,,,0.00,,2013-05-10 11:52:00,
2013-05-10 08:01:00,71.0,71.0,30.08,ENE,71,0.0,0.0,99,0.00,,,0.00,,2013-05-10 12:01:00,
2013-05-10 08:12:00,71.0,70.0,30.08,ENE,71,0.0,0.0,98,0.00,,,0.00,,2013-05-10 12:12:00,
2013-05-10 08:22:00,71.0,70.0,30.08,ENE,71,0.0,0.0,98,0.00,,,0.00,,2013-05-10 12:22:00,
2013-05-10 08:32:00,73.0,72.0,30.08,ENE,71,0.0,1.0,98,0.00,,,0.00,,2013-05-10 12:32:00,
2013-05-10 08:42:00,73.0,72.0,30.08,ENE,71,0.0,1.0,98,0.00,,,0.00,,2013-05-10 12:42:00,
2013-05-10 08:52:00,75.0,73.0,30.08,ESE,105,0.0,0.0,95,0.00,,,0.00,,2013-05-10 12:52:00,
2013-05-10 09:01:00,77.0,74.0,30.08,ESE,102,0.0,3.0,90,0.00,,,0.00,,2013-05-10 13:01:00,
2013-05-10 09:11:00,77.0,74.0,30.08,ESE,102,0.0,3.0,90,0.00,,,0.00,,2013-05-10 13:11:00,
2013-05-10 09:21:00,79.0,73.0,30.08,East,101,3.0,6.0,82,0.00,,,0.00,,2013-05-10 13:21:00,
2013-05-10 09:32:00,80.0,73.0,30.08,ESE,113,0.0,6.0,80,0.00,,,0.00,,2013-05-10 13:32:00,
2013-05-10 09:42:00,81.0,73.0,30.08,East,96,2.0,6.0,77,0.00,,,0.00,,2013-05-10 13:42:00,
2013-05-10 09:52:00,81.0,73.0,30.08,East,96,2.0,6.0,77,0.00,,,0.00,,2013-05-10 13:52:00,
2013-05-10 10:02:00,81.0,72.0,30.08,East,84,5.0,9.0,75,0.00,,,0.00,,2013-05-10 14:02:00,
2013-05-10 10:11:00,82.0,72.0,30.08,East,98,2.0,7.0,73,0.00,,,0.00,,2013-05-10 14:11:00,
2013-05-10 10:21:00,82.0,72.0,30.08,East,98,2.0,7.0,73,0.00,,,0.00,,2013-05-10 14:21:00,
2013-05-10 10:32:00,82.0,72.0,30.09,East,92,1.0,6.0,72,0.00,,,0.00,,2013-05-10 14:32:00,
2013-05-10 10:42:00,83.0,71.0,30.09,ESE,114,2.0,7.0,68,0.00,,,0.00,,2013-05-10 14:42:00,
2013-05-10 10:52:00,83.0,71.0,30.09,ESE,114,2.0,7.0,68,0.00,,,0.00,,2013-05-10 14:52:00,
2013-05-10 11:02:00,83.0,71.0,30.09,ESE,112,2.0,7.0,68,0.00,,,0.00,,2013-05-10 15:02:00,
2013-05-10 11:20:00,-999.0,-99.9,30.08,ESE,110,5.0,9.0,65,0.00,,,0.00,,2013-05-10 15:20:00,
2013-05-10 11:32:00,83.0,72.0,30.08,ESE,113,0.0,9.0,69,0.00,,,0.00,,2013-05-10 15:32:00,
2013-05-10 11:42:00,83.0,71.0,30.07,ESE,114,1.0,6.0,68,0.00,,,0.00,,2013-05-10 15:42:00,
2013-05-10 11:53:00,83.0,71.0,30.07,ESE,114,1.0,6.0,68,0.00,,,0.00,,2013-05-10 15:53:00,
2013-05-10 12:02:00,84.0,73.0,30.08,ESE,112,1.0,6.0,69,0.00,,,0.00,,2013-05-10 16:02:00,
2013-05-10 12:12:00,84.0,71.0,30.07,East,93,6.0,10.0,65,0.00,,,0.00,,2013-05-10 16:12:00,
2013-05-10 12:23:00,84.0,71.0,30.07,East,93,6.0,10.0,65,0.00,,,0.00,,2013-05-10 16:23:00,
2013-05-10 12:32:00,84.0,72.0,30.06,South,172,3.0,10.0,68,0.00,,,0.00,,2013-05-10 16:32:00,
2013-05-10 12:42:00,83.0,71.0,30.06,SSE,148,3.0,12.0,67,0.00,,,0.00,,2013-05-10 16:42:00,
2013-05-10 12:53:00,83.0,71.0,30.06,SSE,148,3.0,12.0,67,0.00,,,0.00,,2013-05-10 16:53:00,
2013-05-10 13:02:00,84.0,71.0,30.06,ESE,104,1.0,9.0,65,0.00,,,0.00,,2013-05-10 17:02:00,
2013-05-10 13:12:00,84.0,71.0,30.06,ESE,107,5.0,12.0,65,0.00,,,0.00,,2013-05-10 17:12:00,
2013-05-10 13:22:00,84.0,71.0,30.06,ESE,107,5.0,12.0,65,0.00,,,0.00,,2013-05-10 17:22:00,
2013-05-10 13:32:00,84.0,71.0,30.06,ESE,117,2.0,12.0,66,0.00,,,0.00,,2013-05-10 17:32:00,
2013-05-10 13:42:00,85.0,71.0,30.05,East,101,2.0,8.0,63,0.00,,,0.00,,2013-05-10 17:42:00,
2013-05-10 13:52:00,85.0,71.0,30.05,East,101,2.0,8.0,63,0.00,,,0.00,,2013-05-10 17:52:00,
2013-05-10 14:10:00,-999.0,-99.9,30.05,South,177,1.0,6.0,62,0.00,,,0.00,,2013-05-10 18:10:00,
2013-05-10 14:22:00,85.0,71.0,30.05,South,182,1.0,6.0,63,0.00,,,0.00,,2013-05-10 18:22:00,
2013-05-10 14:34:00,84.0,71.0,30.05,South,190,2.0,7.0,65,0.00,,,0.00,,2013-05-10 18:34:00,
2013-05-10 14:43:00,84.0,70.0,30.03,ENE,59,3.0,9.0,64,0.00,,,0.00,,2013-05-10 18:43:00,
2013-05-10 14:54:00,84.0,70.0,30.03,ENE,59,3.0,9.0,64,0.00,,,0.00,,2013-05-10 18:54:00,
2013-05-10 15:02:00,84.0,71.0,30.03,East,98,0.0,6.0,65,0.00,,,0.00,,2013-05-10 19:02:00,
2013-05-10 15:11:00,83.0,72.0,30.04,South,173,3.0,9.0,69,0.00,,,0.00,,2013-05-10 19:11:00,
2013-05-10 15:21:00,83.0,72.0,30.04,South,173,3.0,9.0,69,0.00,,,0.00,,2013-05-10 19:21:00,
2013-05-10 15:32:00,82.0,73.0,30.04,NNE,30,3.0,6.0,74,0.01,,,0.01,,2013-05-10 19:32:00,
2013-05-10 15:42:00,79.0,72.0,30.03,East,79,5.0,10.0,78,0.01,,,0.01,,2013-05-10 19:42:00,
2013-05-10 15:52:00,79.0,72.0,30.03,East,79,5.0,10.0,78,0.01,,,0.01,,2013-05-10 19:52:00,
2013-05-10 16:01:00,81.0,74.0,30.02,East,85,6.0,13.0,80,0.01,,,0.01,,2013-05-10 20:01:00,
2013-05-10 16:12:00,81.0,74.0,30.02,East,85,6.0,13.0,80,0.01,,,0.01,,2013-05-10 20:12:00,
2013-05-10 16:21:00,82.0,74.0,30.02,ESE,116,8.0,14.0,78,0.01,,,0.01,,2013-05-10 20:21:00,
2013-05-10 16:32:00,81.0,71.0,30.02,East,86,11.0,17.0,71,0.00,,,0.01,,2013-05-10 20:32:00,
2013-05-10 16:42:00,81.0,71.0,30.02,East,86,11.0,17.0,71,0.00,,,0.01,,2013-05-10 20:42:00,
2013-05-10 16:52:00,81.0,72.0,30.01,ESE,107,4.0,14.0,73,0.00,,,0.01,,2013-05-10 20:52:00,
2013-05-10 17:02:00,81.0,71.0,30.01,East,89,6.0,14.0,72,0.00,,,0.01,,2013-05-10 21:02:00,
2013-05-10 17:11:00,82.0,73.0,30.00,SE,138,5.0,13.0,74,0.00,,,0.01,,2013-05-10 21:11:00,
2013-05-10 17:25:00,82.0,73.0,30.00,SE,138,5.0,13.0,74,0.00,,,0.01,,2013-05-10 21:25:00,
2013-05-10 17:32:00,82.0,74.0,30.01,East,101,5.0,15.0,76,0.00,,,0.01,,2013-05-10 21:32:00,
2013-05-10 17:43:00,82.0,74.0,29.99,East,95,7.0,14.0,76,0.00,,,0.01,,2013-05-10 21:43:00,
2013-05-10 17:53:00,82.0,74.0,29.99,East,95,7.0,14.0,76,0.00,,,0.01,,2013-05-10 21:53:00,
2013-05-10 18:02:00,80.0,72.0,30.00,East,101,5.0,12.0,78,0.00,,,0.01,,2013-05-10 22:02:00,
2013-05-10 18:13:00,80.0,73.0,30.00,East,90,7.0,14.0,79,0.00,,,0.01,,2013-05-10 22:13:00,
2013-05-10 18:22:00,80.0,73.0,30.00,East,90,7.0,14.0,79,0.00,,,0.01,,2013-05-10 22:22:00,
2013-05-10 18:32:00,80.0,72.0,29.99,East,83,4.0,12.0,78,0.00,,,0.01,,2013-05-10 22:32:00,
2013-05-10 18:42:00,80.0,72.0,30.01,ESE,103,4.0,9.0,78,0.00,,,0.01,,2013-05-10 22:42:00,
2013-05-10 18:52:00,80.0,72.0,30.01,ESE,103,4.0,9.0,78,0.00,,,0.01,,2013-05-10 22:52:00,
2013-05-10 19:02:00,79.0,72.0,30.01,East,96,2.0,9.0,79,0.00,,,0.01,,2013-05-10 23:02:00,
2013-05-10 19:12:00,79.0,72.0,30.01,East,96,2.0,9.0,79,0.00,,,0.01,,2013-05-10 23:12:00,
2013-05-10 19:22:00,79.0,72.0,30.01,ESE,121,1.0,9.0,79,0.00,,,0.01,,2013-05-10 23:22:00,
2013-05-10 19:33:00,80.0,72.0,30.01,East,84,3.0,10.0,78,0.00,,,0.01,,2013-05-10 23:33:00,
2013-05-10 19:42:00,79.0,72.0,30.01,SE,125,2.0,12.0,80,0.00,,,0.01,,2013-05-10 23:42:00,
2013-05-10 19:52:00,79.0,72.0,30.01,SE,125,2.0,12.0,80,0.00,,,0.01,,2013-05-10 23:52:00,
2013-05-10 20:02:00,78.0,72.0,30.01,ESE,112,3.0,10.0,81,0.00,,,0.01,,2013-05-11 00:02:00,
2013-05-10 20:11:00,78.0,72.0,30.02,ESE,107,0.0,3.0,82,0.00,,,0.01,,2013-05-11 00:11:00,
2013-05-10 20:21:00,78.0,72.0,30.02,ESE,107,0.0,3.0,82,0.00,,,0.01,,2013-05-11 00:21:00,
2013-05-10 20:32:00,78.0,72.0,30.03,SE,137,2.0,7.0,82,0.00,,,0.01,,2013-05-11 00:32:00,
2013-05-10 20:42:00,78.0,71.0,30.03,SSW,211,2.0,9.0,80,0.00,,,0.01,,2013-05-11 00:42:00,
2013-05-10 20:52:00,78.0,71.0,30.03,SSW,211,2.0,9.0,80,0.00,,,0.01,,2013-05-11 00:52:00,
2013-05-10 21:01:00,77.0,70.0,30.03,SSE,157,1.0,6.0,78,0.00,,,0.01,,2013-05-11 01:01:00,
2013-05-10 21:11:00,75.0,68.0,30.03,SW,217,0.0,3.0,78,0.00,,,0.01,,2013-05-11 01:11:00,
2013-05-10 21:21:00,75.0,68.0,30.03,SW,217,0.0,3.0,78,0.00,,,0.01,,2013-05-11 01:21:00,
2013-05-10 21:32:00,74.0,67.0,30.02,SW,221,0.0,0.0,80,0.00,,,0.01,,2013-05-11 01:32:00,
2013-05-10 21:42:00,74.0,68.0,30.02,SW,214,0.0,1.0,82,0.00,,,0.01,,2013-05-11 01:42:00,
2013-05-10 21:52:00,74.0,68.0,30.02,SW,214,0.0,1.0,82,0.00,,,0.01,,2013-05-11 01:52:00,
2013-05-10 22:02:00,73.0,68.0,30.02,ESE,113,0.0,0.0,84,0.00,,,0.01,,2013-05-11 02:02:00,
2013-05-10 22:11:00,73.0,68.0,30.02,East,97,0.0,0.0,85,0.00,,,0.01,,2013-05-11 02:11:00,
2013-05-10 22:22:00,73.0,68.0,30.02,East,97,0.0,0.0,85,0.00,,,0.01,,2013-05-11 02:22:00,
2013-05-10 22:32:00,72.0,68.0,30.02,East,97,0.0,0.0,86,0.00,,,0.01,,2013-05-11 02:32:00,
2013-05-10 22:42:00,71.0,67.0,30.03,South,178,0.0,0.0,86,0.00,,,0.01,,2013-05-11 02:42:00,
2013-05-10 22:52:00,71.0,67.0,30.03,South,178,0.0,0.0,86,0.00,,,0.01,,2013-05-11 02:52:00,
2013-05-10 23:01:00,71.0,67.0,30.03,SSE,158,0.0,1.0,87,0.00,,,0.01,,2013-05-11 03:01:00,
2013-05-10 23:11:00,71.0,67.0,30.03,SSE,165,0.0,0.0,88,0.00,,,0.01,,2013-05-11 03:11:00,
2013-05-10 23:21:00,71.0,67.0,30.03,SSE,165,0.0,0.0,88,0.00,,,0.01,,2013-05-11 03:21:00,
2013-05-10 23:33:00,70.0,67.0,30.03,SSE,165,0.0,0.0,89,0.00,,,0.01,,2013-05-11 03:33:00,
2013-05-10 23:42:00,70.0,67.0,30.04,SSE,165,0.0,0.0,89,0.00,,,0.01,,2013-05-11 03:42:00,
2013-05-10 23:53:00,70.0,67.0,30.04,SSE,165,0.0,0.0,89,0.00,,,0.01,,2013-05-11 03:53:00,